WON1832 WADD-WATK

Flight info

Callsign WON1832
Flight time 1h 4m
Altitude 13000
Route LEDOM DCT IDMUS
Aircraft AT76/M-SDFGIRY/S

Departure

Time 2026-05-04 04:38
Airport Denpasar I Gusti Ngurah Rai International Airport (WADD)

Arrival

Time 2026-05-04 05:42
Airport Tambolaka Airport (WATK)
Time Latitude Longitude Altitude Speed Heading
2026-05-04 04:15 -8.74621 115.16171 30 ft 0 kts 359°
2026-05-04 04:30 -8.74624 115.16171 30 ft 2 kts 359°
2026-05-04 04:30 -8.74638 115.16171 30 ft 2 kts 359°
2026-05-04 04:30 -8.74652 115.16172 30 ft 2 kts 359°
2026-05-04 04:30 -8.74665 115.16172 29 ft 2 kts 358°
2026-05-04 04:31 -8.74678 115.16173 29 ft 2 kts 353°
2026-05-04 04:31 -8.74687 115.16174 29 ft 1 kts 335°
2026-05-04 04:31 -8.74692 115.16177 29 ft 1 kts 307°
2026-05-04 04:31 -8.74695 115.16181 29 ft 1 kts 282°
2026-05-04 04:32 -8.74696 115.16186 29 ft 1 kts 272°
2026-05-04 04:32 -8.74696 115.16192 29 ft 1 kts 268°
2026-05-04 04:32 -8.74696 115.16193 29 ft 0 kts 268°
2026-05-04 04:33 -8.74697 115.16165 29 ft 8 kts 268°
2026-05-04 04:33 -8.74699 115.16112 29 ft 9 kts 268°
2026-05-04 04:34 -8.74702 115.16036 29 ft 13 kts 265°
2026-05-04 04:34 -8.74707 115.15937 29 ft 15 kts 267°
2026-05-04 04:34 -8.74712 115.15823 29 ft 17 kts 267°
2026-05-04 04:34 -8.74715 115.15764 29 ft 3 kts 267°
2026-05-04 04:35 -8.74715 115.15718 29 ft 7 kts 262°
2026-05-04 04:35 -8.74716 115.15653 29 ft 12 kts 269°
2026-05-04 04:35 -8.74722 115.15556 28 ft 16 kts 265°
2026-05-04 04:35 -8.74731 115.15438 28 ft 18 kts 265°
2026-05-04 04:36 -8.74802 115.15388 30 ft 5 kts 179°
2026-05-04 04:36 -8.74837 115.15388 26 ft 0 kts 179°
2026-05-04 04:36 -8.74838 115.15388 26 ft 2 kts 179°
2026-05-04 04:36 -8.74888 115.15390 23 ft 4 kts 168°
2026-05-04 04:37 -8.74891 115.15516 24 ft 37 kts 88°
2026-05-04 04:37 -8.74871 115.15974 24 ft 92 kts 87°
2026-05-04 04:38 -8.74834 115.16768 68 ft 128 kts 88°
2026-05-04 04:38 -8.74771 115.17694 477 ft 133 kts 88°
2026-05-04 04:38 -8.74722 115.18642 1019 ft 133 kts 87°
2026-05-04 04:38 -8.74637 115.19635 1159 ft 154 kts 86°
2026-05-04 04:39 -8.74551 115.20793 1257 ft 172 kts 87°
2026-05-04 04:39 -8.74480 115.21982 1733 ft 168 kts 88°
2026-05-04 04:39 -8.74423 115.23162 2167 ft 170 kts 90°
2026-05-04 04:39 -8.74397 115.24346 2563 ft 171 kts 90°
2026-05-04 04:40 -8.74380 115.25543 2899 ft 171 kts 89°
2026-05-04 04:40 -8.74349 115.26754 3231 ft 172 kts 88°
2026-05-04 04:40 -8.74303 115.27972 3535 ft 174 kts 88°
2026-05-04 04:40 -8.74249 115.29198 3854 ft 174 kts 88°
2026-05-04 04:41 -8.74190 115.30426 4172 ft 175 kts 88°
2026-05-04 04:41 -8.74142 115.31659 4498 ft 176 kts 88°
2026-05-04 04:41 -8.74093 115.32895 4796 ft 176 kts 88°
2026-05-04 04:41 -8.74046 115.34138 5064 ft 177 kts 88°
2026-05-04 04:42 -8.73998 115.35390 5318 ft 180 kts 88°
2026-05-04 04:42 -8.73950 115.36654 5635 ft 180 kts 88°
2026-05-04 04:42 -8.73905 115.37925 5908 ft 181 kts 88°
2026-05-04 04:42 -8.73857 115.39196 6204 ft 182 kts 88°
2026-05-04 04:43 -8.73809 115.40465 6462 ft 183 kts 88°
2026-05-04 04:43 -8.73761 115.41753 6721 ft 184 kts 88°
2026-05-04 04:43 -8.73712 115.43048 6972 ft 185 kts 88°
2026-05-04 04:43 -8.73662 115.44348 7242 ft 185 kts 88°
2026-05-04 04:44 -8.73613 115.45651 7510 ft 186 kts 88°
2026-05-04 04:44 -8.73565 115.46959 7787 ft 187 kts 87°
2026-05-04 04:44 -8.73512 115.48303 7899 ft 196 kts 87°
2026-05-04 04:44 -8.73459 115.49717 7946 ft 207 kts 88°
2026-05-04 04:45 -8.73430 115.50693 7957 ft 211 kts 91°
2026-05-04 04:45 -8.73924 115.52090 7978 ft 219 kts 122°
2026-05-04 04:45 -8.74840 115.53359 7991 ft 228 kts 126°
2026-05-04 04:47 -8.80649 115.61275 9585 ft 198 kts 124°
2026-05-04 04:47 -8.81199 115.62037 9738 ft 199 kts 123°
2026-05-04 04:47 -8.82001 115.63151 9941 ft 199 kts 123°
2026-05-04 04:47 -8.82825 115.64276 10127 ft 200 kts 127°
2026-05-04 04:48 -8.83667 115.65392 10313 ft 199 kts 118°
2026-05-04 04:49 -8.85536 115.70630 11116 ft 199 kts 100°
2026-05-04 04:49 -8.85757 115.72004 11297 ft 199 kts 98°
2026-05-04 04:49 -8.86029 115.73378 11485 ft 200 kts 101°
2026-05-04 04:49 -8.86308 115.74759 11691 ft 200 kts 99°
2026-05-04 04:50 -8.86558 115.76149 11862 ft 201 kts 99°
2026-05-04 04:50 -8.86833 115.77534 12060 ft 201 kts 100°
2026-05-04 04:50 -8.87102 115.78926 12227 ft 202 kts 99°
2026-05-04 04:50 -8.87367 115.80318 12395 ft 203 kts 100°
2026-05-04 04:51 -8.87637 115.81719 12579 ft 203 kts 100°
2026-05-04 04:51 -8.87907 115.83122 12738 ft 205 kts 100°
2026-05-04 04:51 -8.88185 115.84553 12828 ft 210 kts 100°
2026-05-04 04:51 -8.88465 115.86023 12871 ft 216 kts 100°
2026-05-04 04:52 -8.88746 115.87472 13177 ft 208 kts 100°
2026-05-04 04:52 -8.89017 115.88899 13394 ft 206 kts 100°
2026-05-04 04:52 -8.89292 115.90323 13557 ft 207 kts 100°
2026-05-04 04:52 -8.89568 115.91750 13725 ft 207 kts 100°
2026-05-04 04:53 -8.89838 115.93179 13866 ft 207 kts 100°
2026-05-04 04:53 -8.90117 115.94610 13996 ft 208 kts 101°
2026-05-04 04:53 -8.90399 115.96049 14134 ft 208 kts 100°
2026-05-04 04:53 -8.90668 115.97492 14261 ft 209 kts 100°
2026-05-04 04:54 -8.90948 115.98939 14374 ft 210 kts 100°
2026-05-04 04:54 -8.91226 116.00372 14506 ft 211 kts 100°
2026-05-04 04:54 -8.91503 116.01833 14642 ft 212 kts 100°
2026-05-04 04:54 -8.91787 116.03297 14792 ft 212 kts 100°
2026-05-04 04:55 -8.92072 116.04767 14929 ft 213 kts 100°
2026-05-04 04:55 -8.92352 116.06239 15065 ft 213 kts 100°
2026-05-04 04:55 -8.92636 116.07715 15196 ft 214 kts 100°
2026-05-04 04:55 -8.92923 116.09195 15326 ft 215 kts 100°
2026-05-04 04:56 -8.93206 116.10685 15450 ft 216 kts 100°
2026-05-04 04:56 -8.93493 116.12173 15573 ft 216 kts 101°
2026-05-04 04:56 -8.93773 116.13669 15699 ft 217 kts 98°
2026-05-04 04:56 -8.93977 116.15182 15820 ft 217 kts 97°
2026-05-04 04:57 -8.94175 116.16701 15933 ft 218 kts 97°
2026-05-04 04:57 -8.94406 116.18219 16038 ft 219 kts 99°
2026-05-04 04:57 -8.94680 116.19735 16154 ft 219 kts 100°
2026-05-04 04:57 -8.94971 116.21252 16256 ft 220 kts 100°
2026-05-04 04:58 -8.95260 116.22776 16354 ft 221 kts 100°
2026-05-04 04:58 -8.95543 116.24281 16462 ft 221 kts 100°
2026-05-04 04:58 -8.95829 116.25810 16560 ft 222 kts 100°
2026-05-04 04:58 -8.96116 116.27348 16648 ft 223 kts 100°
2026-05-04 04:59 -8.96402 116.28884 16783 ft 222 kts 100°
2026-05-04 04:59 -8.96687 116.30429 16860 ft 225 kts 100°
2026-05-04 04:59 -8.96979 116.31998 16900 ft 229 kts 100°
2026-05-04 04:59 -8.97278 116.33599 16916 ft 234 kts 100°
2026-05-04 05:00 -8.97581 116.35227 16928 ft 238 kts 100°
2026-05-04 05:00 -8.97889 116.36883 16927 ft 241 kts 100°
2026-05-04 05:00 -8.98516 116.40256 16932 ft 247 kts 100°
2026-05-04 05:01 -8.98833 116.41971 16937 ft 248 kts 100°
2026-05-04 05:01 -8.99152 116.43693 16934 ft 250 kts 100°
2026-05-04 05:01 -8.99474 116.45426 16932 ft 251 kts 100°
2026-05-04 05:01 -8.99797 116.47165 16929 ft 252 kts 100°
2026-05-04 05:02 -9.00117 116.48886 16930 ft 252 kts 100°
2026-05-04 05:02 -9.00441 116.50634 16926 ft 253 kts 100°
2026-05-04 05:02 -9.00765 116.52389 16930 ft 253 kts 100°
2026-05-04 05:02 -9.01091 116.54142 16925 ft 254 kts 100°
2026-05-04 05:03 -9.01417 116.55899 16929 ft 254 kts 100°
2026-05-04 05:03 -9.01742 116.57656 16930 ft 254 kts 100°
2026-05-04 05:04 -9.02722 116.62943 16930 ft 255 kts 100°
2026-05-04 05:04 -9.03049 116.64708 16926 ft 255 kts 100°
2026-05-04 05:04 -9.03375 116.66474 16929 ft 255 kts 100°
2026-05-04 05:06 -9.05658 116.78835 16927 ft 256 kts 100°
2026-05-04 05:06 -9.05984 116.80607 16921 ft 256 kts 100°
2026-05-04 05:06 -9.06310 116.82378 16929 ft 256 kts 100°
2026-05-04 05:07 -9.06638 116.84151 16927 ft 256 kts 100°
2026-05-04 05:07 -9.06965 116.85920 16927 ft 256 kts 100°
2026-05-04 05:07 -9.07291 116.87693 16928 ft 256 kts 100°
2026-05-04 05:09 -9.09901 117.01869 16928 ft 257 kts 100°
2026-05-04 05:09 -9.10228 117.03648 16926 ft 258 kts 100°
2026-05-04 05:10 -9.10558 117.05433 16923 ft 258 kts 100°
2026-05-04 05:10 -9.10884 117.07213 16920 ft 257 kts 100°
2026-05-04 05:10 -9.11211 117.08992 16923 ft 257 kts 100°
2026-05-04 05:10 -9.11537 117.10771 16927 ft 257 kts 100°
2026-05-04 05:11 -9.11864 117.12552 16928 ft 257 kts 100°
2026-05-04 05:11 -9.12191 117.14329 16925 ft 257 kts 100°
2026-05-04 05:11 -9.12517 117.16107 16931 ft 257 kts 100°
2026-05-04 05:11 -9.12843 117.17889 16929 ft 257 kts 100°
2026-05-04 05:12 -9.13170 117.19667 16925 ft 257 kts 100°
2026-05-04 05:12 -9.13492 117.21425 16929 ft 257 kts 100°
2026-05-04 05:12 -9.13819 117.23204 16926 ft 257 kts 100°
2026-05-04 05:12 -9.14146 117.24987 16927 ft 257 kts 100°
2026-05-04 05:13 -9.14472 117.26766 16924 ft 257 kts 100°
2026-05-04 05:13 -9.14798 117.28545 16925 ft 257 kts 100°
2026-05-04 05:13 -9.15125 117.30328 16927 ft 257 kts 100°
2026-05-04 05:13 -9.15449 117.32104 16927 ft 257 kts 100°
2026-05-04 05:14 -9.15775 117.33885 16921 ft 257 kts 100°
2026-05-04 05:14 -9.16100 117.35663 16922 ft 257 kts 100°
2026-05-04 05:14 -9.16426 117.37446 16921 ft 257 kts 100°
2026-05-04 05:14 -9.16752 117.39227 16925 ft 257 kts 100°
2026-05-04 05:15 -9.17073 117.40986 16926 ft 257 kts 100°
2026-05-04 05:15 -9.17399 117.42768 16925 ft 257 kts 100°
2026-05-04 05:15 -9.17724 117.44548 16922 ft 257 kts 100°
2026-05-04 05:15 -9.18049 117.46329 16922 ft 257 kts 100°
2026-05-04 05:16 -9.18373 117.48111 16921 ft 257 kts 100°
2026-05-04 05:16 -9.18700 117.49896 16923 ft 257 kts 100°
2026-05-04 05:16 -9.19026 117.51680 16920 ft 258 kts 100°
2026-05-04 05:16 -9.19351 117.53464 16920 ft 258 kts 100°
2026-05-04 05:17 -9.19677 117.55249 16918 ft 258 kts 100°
2026-05-04 05:17 -9.20004 117.57042 16922 ft 258 kts 100°
2026-05-04 05:17 -9.20329 117.58827 16919 ft 258 kts 100°
2026-05-04 05:17 -9.20650 117.60587 16920 ft 258 kts 100°
2026-05-04 05:18 -9.20973 117.62375 16915 ft 258 kts 100°
2026-05-04 05:18 -9.21289 117.64164 16917 ft 258 kts 99°
2026-05-04 05:18 -9.21565 117.65961 16916 ft 258 kts 98°
2026-05-04 05:18 -9.21801 117.67767 16919 ft 258 kts 97°
2026-05-04 05:19 -9.22017 117.69573 16920 ft 258 kts 97°
2026-05-04 05:19 -9.22228 117.71376 16917 ft 258 kts 97°
2026-05-04 05:19 -9.22438 117.73183 16917 ft 258 kts 97°
2026-05-04 05:19 -9.22647 117.74985 16916 ft 258 kts 97°
2026-05-04 05:20 -9.22856 117.76789 16918 ft 258 kts 97°
2026-05-04 05:20 -9.23064 117.78593 16916 ft 258 kts 97°
2026-05-04 05:20 -9.23273 117.80399 16917 ft 258 kts 97°
2026-05-04 05:20 -9.23480 117.82206 16917 ft 258 kts 97°
2026-05-04 05:21 -9.23686 117.83993 16914 ft 258 kts 97°
2026-05-04 05:21 -9.23895 117.85795 16913 ft 258 kts 97°
2026-05-04 05:21 -9.24104 117.87603 16914 ft 259 kts 97°
2026-05-04 05:21 -9.24313 117.89414 16914 ft 259 kts 97°
2026-05-04 05:22 -9.24520 117.91220 16913 ft 259 kts 97°
2026-05-04 05:22 -9.24729 117.93029 16915 ft 259 kts 97°
2026-05-04 05:22 -9.24936 117.94835 16913 ft 259 kts 97°
2026-05-04 05:22 -9.25142 117.96649 16911 ft 259 kts 97°
2026-05-04 05:23 -9.25348 117.98458 16913 ft 259 kts 97°
2026-05-04 05:23 -9.25555 118.00265 16911 ft 259 kts 97°
2026-05-04 05:23 -9.25762 118.02078 16913 ft 259 kts 97°
2026-05-04 05:23 -9.25966 118.03888 16913 ft 259 kts 96°
2026-05-04 05:24 -9.26152 118.05700 16908 ft 259 kts 96°
2026-05-04 05:24 -9.26339 118.07511 16907 ft 259 kts 97°
2026-05-04 05:24 -9.26537 118.09327 16909 ft 259 kts 98°
2026-05-04 05:24 -9.26750 118.11140 16911 ft 260 kts 98°
2026-05-04 05:25 -9.26959 118.12964 16913 ft 261 kts 98°
2026-05-04 05:25 -9.27168 118.14786 16910 ft 261 kts 98°
2026-05-04 05:25 -9.27375 118.16616 16912 ft 261 kts 98°
2026-05-04 05:25 -9.27589 118.18443 16912 ft 262 kts 98°
2026-05-04 05:26 -9.27802 118.20273 16912 ft 262 kts 98°
2026-05-04 05:26 -9.28010 118.22108 16912 ft 262 kts 98°
2026-05-04 05:26 -9.28218 118.23941 16912 ft 262 kts 98°
2026-05-04 05:26 -9.28426 118.25754 16909 ft 262 kts 98°
2026-05-04 05:27 -9.28633 118.27591 16909 ft 262 kts 97°
2026-05-04 05:28 -9.30138 118.40572 16181 ft 276 kts 98°
2026-05-04 05:29 -9.30379 118.42508 15816 ft 278 kts 98°
2026-05-04 05:29 -9.30613 118.44460 15448 ft 280 kts 98°
2026-05-04 05:29 -9.30836 118.46405 15087 ft 282 kts 98°
2026-05-04 05:29 -9.31062 118.48383 14721 ft 283 kts 98°
2026-05-04 05:31 -9.32641 118.62301 12042 ft 283 kts 98°
2026-05-04 05:31 -9.32863 118.64283 11661 ft 282 kts 97°
2026-05-04 05:32 -9.33087 118.66246 11287 ft 280 kts 97°
2026-05-04 05:32 -9.33306 118.68197 10920 ft 278 kts 97°
2026-05-04 05:32 -9.33526 118.70136 10554 ft 276 kts 97°
2026-05-04 05:33 -9.33959 118.73972 9847 ft 272 kts 97°
2026-05-04 05:33 -9.34100 118.75231 9594 ft 271 kts 97°
2026-05-04 05:33 -9.34313 118.77127 9208 ft 270 kts 97°
2026-05-04 05:33 -9.34594 118.79619 8701 ft 267 kts 97°
2026-05-04 05:34 -9.34803 118.81473 8325 ft 262 kts 97°
2026-05-04 05:34 -9.35008 118.83288 7962 ft 257 kts 97°
2026-05-04 05:34 -9.35209 118.85072 7609 ft 253 kts 97°
2026-05-04 05:34 -9.35341 118.86237 7380 ft 250 kts 97°
2026-05-04 05:35 -9.35536 118.87981 7036 ft 247 kts 97°
2026-05-04 05:35 -9.35729 118.89700 6704 ft 244 kts 97°
2026-05-04 05:35 -9.35921 118.91407 6360 ft 242 kts 96°
2026-05-04 05:35 -9.36107 118.93075 6011 ft 240 kts 97°
2026-05-04 05:36 -9.36296 118.94757 5647 ft 239 kts 97°
2026-05-04 05:36 -9.36487 118.96422 5294 ft 237 kts 97°
2026-05-04 05:36 -9.36680 118.98073 5055 ft 231 kts 97°
2026-05-04 05:36 -9.36890 118.99672 4752 ft 229 kts 98°
2026-05-04 05:37 -9.37126 119.01266 4420 ft 228 kts 99°
2026-05-04 05:37 -9.37370 119.02781 4102 ft 209 kts 99°
2026-05-04 05:37 -9.37598 119.04182 3802 ft 195 kts 99°
2026-05-04 05:38 -9.38000 119.06701 3433 ft 175 kts 100°
2026-05-04 05:38 -9.38202 119.07898 3205 ft 168 kts 100°
2026-05-04 05:38 -9.38389 119.09029 2965 ft 164 kts 100°
2026-05-04 05:38 -9.38575 119.10165 2726 ft 163 kts 99°
2026-05-04 05:39 -9.38759 119.11303 2492 ft 164 kts 100°
2026-05-04 05:39 -9.39130 119.13533 2049 ft 150 kts 99°
2026-05-04 05:39 -9.39298 119.14517 1965 ft 139 kts 99°
2026-05-04 05:40 -9.39610 119.16315 1788 ft 118 kts 99°
2026-05-04 05:40 -9.39738 119.17125 1660 ft 117 kts 99°
2026-05-04 05:40 -9.39866 119.17959 1459 ft 123 kts 99°
2026-05-04 05:41 -9.39984 119.18832 1271 ft 127 kts 98°
2026-05-04 05:41 -9.40179 119.19682 1018 ft 123 kts 101°
2026-05-04 05:41 -9.40310 119.20516 846 ft 118 kts 92°
2026-05-04 05:41 -9.40421 119.21332 666 ft 119 kts 97°
2026-05-04 05:42 -9.40560 119.22165 476 ft 122 kts 94°
2026-05-04 05:42 -9.40708 119.22997 271 ft 117 kts 93°
2026-05-04 05:42 -9.40830 119.23777 157 ft 104 kts 97°
2026-05-04 05:42 -9.40926 119.24346 155 ft 41 kts 99°
2026-05-04 05:43 -9.40961 119.24566 155 ft 25 kts 99°
2026-05-04 05:43 -9.40976 119.24602 157 ft 4 kts 165°
2026-05-04 05:43 -9.41067 119.24592 155 ft 14 kts 189°
2026-05-04 05:45 -9.41128 119.24519 156 ft 0 kts 189°